GW0092 Weather Reports


time (UTC)temp
F
wind
direction
speed
knots
gust
knots
rain 1hr
in
rain 24hr
in
rain mn
in
humidity
%
barometer
mb
20260903001555 75 0 0.0 0.0 0.00 0.37 0.37 98 1017.5
20260902234616 75 0 0.0 0.0 0.00 0.37 0.37 97 1017.6
20260902233059 76 0 0.0 0.0 0.00 0.37 0.37 96 1017.2
20260902231626 76 0 0.0 0.9 0.00 0.37 0.37 95 1017.3
20260902230107 77 0 0.0 0.9 0.00 0.37 0.37 95 1017.4
20260902224612 77 0 0.0 0.0 0.00 0.37 0.37 95 1017.7
20260902223107 77 0 0.0 0.0 0.00 0.37 0.37 94 1017.7
20260902221608 77 326 0.0 0.9 0.00 0.37 0.37 94 1017.8
20260902220107 78 0 0.0 0.9 0.00 0.37 0.37 93 1017.6
20260902214604 78 0 0.0 0.0 0.00 0.37 0.37 94 1017.5
20260902213118 78 0 0.0 0.9 0.00 0.37 0.37 94 1017.4
20260902211557 77 308 0.0 1.7 0.00 0.37 0.37 95 1017.6
20260902210106 77 321 0.0 3.5 0.00 0.37 0.37 95 1017.5
20260902204602 76 228 0.0 4.3 0.00 0.37 0.37 96 1016.5
20260902203107 76 104 1.7 3.5 0.00 0.37 0.37 96 1015.7
20260902201608 76 143 0.0 2.6 0.00 0.37 0.37 96 1017.5
20260902200135 77 334 0.0 0.9 0.00 0.37 0.37 94 1019.1
20260902194601 77 335 0.0 2.6 0.00 0.37 0.37 93 1020.0
20260902193108 78 319 0.0 2.6 0.00 0.37 0.37 92 1019.6
20260902191614 78 0 0.0 4.3 0.00 0.37 0.37 92 1019.1
20260902190115 79 356 0.0 4.3 0.00 0.37 0.37 91 1019.7
20260902184602 79 307 0.9 5.2 0.00 0.37 0.37 89 1019.3
20260902183119 80 165 0.9 5.2 0.00 0.37 0.37 89 1019.0
20260902181606 80 0 0.0 1.7 0.00 0.37 0.37 89 1019.3
20260902180126 80 353 0.0 2.6 0.00 0.37 0.37 89 1019.5
20260902174614 81 296 0.0 5.2 0.00 0.37 0.37 89 1019.2
20260902173106 81 267 1.7 5.2 0.00 0.37 0.37 87 1019.1
20260902171608 81 97 0.0 2.6 0.00 0.37 0.37 90 1018.9
20260902170103 81 0 0.0 3.5 0.00 0.37 0.37 91 1018.8
20260902164605 80 250 0.9 3.5 0.00 0.37 0.37 89 1019.1
20260902163104 80 245 0.0 3.5 0.00 0.37 0.37 89 1019.0
20260902161605 81 294 0.9 6.1 0.00 0.37 0.37 88 1018.8
20260902160108 80 0 0.0 4.3 0.00 0.37 0.37 91 1018.9
20260902154607 80 254 0.9 4.3 0.00 0.37 0.37 90 1019.1
20260902153100 80 284 1.7 4.3 0.00 0.37 0.37 91 1019.2
20260902151559 80 247 0.0 2.6 0.00 0.37 0.37 90 1019.2
20260902144603 81 135 0.9 5.2 0.00 0.37 0.37 91 1018.9
20260902143105 80 89 1.7 3.5 0.00 0.37 0.37 92 1018.8
20260902141602 78 304 0.9 5.2 0.00 0.37 0.37 94 1018.8
20260902140104 78 349 0.0 1.7 0.00 0.37 0.37 96 1018.8
20260902134605 77 326 1.7 5.2 0.00 0.37 0.37 98 1018.3
20260902133104 76 10 0.9 4.3 0.00 0.37 0.37 99 1018.4
20260902131608 75 309 0.9 3.5 0.00 0.37 0.37 100 1018.1
20260902130057 75 0 0.0 2.6 0.00 0.37 0.37 100 1018.0
20260902124603 75 316 0.0 2.6 0.00 0.37 0.37 100 1018.1
20260902123059 74 266 0.0 1.7 0.00 0.37 0.37 100 1018.1
20260902121604 74 0 0.0 0.0 0.00 0.37 0.37 100 1018.2
20260902120056 73 0 0.0 0.0 0.00 0.37 0.37 100 1018.4
20260902114604 73 0 0.0 0.0 0.00 0.37 0.37 100 1018.2
20260902113113 72 0 0.0 0.0 0.00 0.37 0.37 100 1018.1
20260902111602 72 0 0.0 0.0 0.00 0.37 0.37 100 1018.0
20260902110057 72 0 0.0 0.0 0.00 0.37 0.37 100 1017.9
20260902104601 72 0 0.0 0.0 0.00 0.37 0.37 100 1017.8
20260902103100 72 0 0.0 0.0 0.00 0.37 0.37 100 1017.7
20260902101607 72 305 0.0 2.6 0.00 0.37 0.37 100 1017.6
20260902100101 72 9 0.0 1.7 0.00 0.37 0.37 100 1017.3
20260902094602 72 295 0.9 1.7 0.00 0.37 0.37 100 1017.0
20260902093057 72 340 0.0 1.7 0.00 0.37 0.37 100 1016.8
20260902091605 72 6 0.9 3.5 0.00 0.37 0.37 100 1016.8
20260902090128 72 0 0.0 0.9 0.00 0.37 0.37 100 1016.5
20260902084603 72 328 0.0 1.7 0.00 0.37 0.37 100 1016.2
20260902083115 72 0 0.0 0.9 0.00 0.37 0.37 99 1016.0
20260902081608 72 0 0.0 0.0 0.00 0.37 0.37 99 1015.9
20260902080111 72 0 0.0 0.0 0.03 0.37 0.37 99 1016.0
20260902074558 72 0 0.0 0.9 0.03 0.37 0.37 99 1016.1
20260902073100 72 0 0.0 1.7 0.03 0.37 0.37 99 1016.1
20260902071602 72 0 0.0 0.9 0.03 0.37 0.37 99 1016.3
20260902070106 72 261 0.0 2.6 0.04 0.34 0.34 99 1017.0
20260902064607 72 0 0.0 0.9 0.28 0.34 0.34 99 1016.6
20260902063102 73 0 0.0 0.9 0.34 0.34 0.34 98 1016.4
20260902061625 73 0 0.0 4.3 0.34 0.34 0.34 98 1016.8
20260902060104 73 157 0.0 4.3 0.30 0.30 0.30 97 1017.4
20260902054604 74 292 1.7 5.2 0.06 0.06 0.06 96 1018.5
20260902053058 75 321 1.7 3.5 0.00 0.00 0.00 94 1018.2
20260902051557 74 0 0.0 0.9 0.00 0.00 0.00 93 1017.5
20260902050107 74 0 0.0 0.9 0.00 0.00 0.00 93 1017.3
20260902044603 75 0 0.0 1.7 0.00 0.00 0.00 92 1017.2
20260902043118 76 0 0.0 4.3 0.00 0.00 0.00 91 1017.2
20260902041609 77 144 1.7 8.7 0.00 0.00 0.00 89 1017.3
20260902040107 79 286 0.0 2.6 0.00 0.00 0.00 88 1017.3
20260902034601 79 308 1.7 9.6 0.00 0.00 0.00 89 1017.0
20260902033114 78 277 4.3 10.4 0.00 0.00 0.00 94 1017.2
20260902031605 78 0 0.0 0.0 0.00 0.00 0.00 96 1015.7
20260902030118 78 0 0.0 0.0 0.00 0.00 0.00 96 1015.4
20260902024601 78 0 0.0 0.0 0.00 0.00 0.00 97 1015.4
20260902023115 78 0 0.0 0.0 0.00 0.00 0.00 97 1015.4
20260902021621 78 0 0.0 0.0 0.00 0.00 0.00 97 1015.3
20260902020104 78 0 0.0 0.0 0.00 0.00 0.00 97 1015.4
20260902014605 78 0 0.0 0.0 0.00 0.00 0.00 97 1014.9
20260902013056 78 0 0.0 0.0 0.00 0.00 0.00 97 1014.6
20260902011602 79 0 0.0 0.0 0.00 0.00 0.00 97 1014.9
20260902004559 79 0 0.0 0.0 0.00 0.00 0.00 97 1014.7
20260902003100 80 0 0.0 0.0 0.00 0.00 0.00 97 1014.2